Huntsville, AL

7:10 AM CST on February 19, 2017 (GMT -0600)
Huntsville International

Weather History for KHSV - October, 2014

Change the Weather History Date:

Monday, October 13, 2014

  Actual Average Record
Temperature  
Mean Temperature 76 °F 64 °F  
Max Temperature 84 °F 76 °F 89 °F (1954)
Min Temperature 67 °F 52 °F 28 °F (1909)
Degree Days  
Heating Degree Days 0 4  
Month to date heating degree days 19 35  
Since 1 July heating degree days 19 48  
Cooling Degree Days 11 2  
Month to date cooling degree days 92 44  
Year to date cooling degree days 2014 1914  
Growing Degree Days 25 (Base 50)    
Moisture  
Dew Point 66 °F    
Average Humidity 74    
Maximum Humidity 93    
Minimum Humidity 55    
Precipitation  
Precipitation 2.32 in 0.12 in 2.66 in (2001)
Month to date precipitation 5.31 1.44  
Year to date precipitation 43.95 41.48  
Snow  
Snow 0.00 in - - ()
Month to date snowfall 0.0  
Since 1 July snowfall 0.0  
Since 1 September snowfall 0.0  
Snow Depth 0.00 in    
Sea Level Pressure  
Sea Level Pressure 29.91 in    
Wind  
Wind Speed 15 mph (SSE)    
Max Wind Speed 33 mph    
Max Gust Speed 49 mph    
Visibility 7 miles    
Events Rain , Thunderstorm    
T = Trace of Precipitation, MM = Missing Value Source: NWS Daily Summary

Daily Weather History Graph

Daily Weather History Graph

Search for Another Location

Airport or City:

Trip Planner

Search our weather history database for the weather conditions in past years. The results will help you decide how hot, cold, wet, or windy it might be!

Date:

Astronomy

Oct. 13, 2014 Rise Set
Actual Time 6:51 AM CDT 6:14 PM CDT
Civil Twilight 6:25 AM CDT 6:40 PM CDT
Nautical Twilight 5:56 AM CDT 7:09 PM CDT
Astronomical Twilight 5:27 AM CDT 7:38 PM CDT
Moon 10:33 PM CDT (10/13) 11:57 AM CDT (10/13)
Length of Visible Light 12h 14m
Length of Day
11h 23m
Waning Gibbous, 70% of the Moon is Illuminated
Oct 13
Waning Gibbous
Oct 15
Last Quarter
Oct 23
New
Oct 30
First Quarter
Nov 6
Full

Hourly Weather History & Observations

Time (CDT) Temp. Heat Index Dew Point Humidity Pressure Visibility Wind Dir Wind Speed Gust Speed Precip Events Conditions
12:20 AM 69.8 °F - 64.4 °F 83% 30.03 in 7.0 mi SSE 9.2 mph - 0.01 in Rain , Thunderstorm Rain
12:35 AM 69.8 °F - 66.2 °F 88% 30.02 in 3.0 mi ESE 13.8 mph - 0.04 in Rain Heavy Rain
12:53 AM 69.1 °F - 66.0 °F 90% 30.00 in 10.0 mi ESE 11.5 mph - 0.10 in Rain Light Rain
1:53 AM 68.0 °F - 66.9 °F 96% 30.00 in 7.0 mi ESE 12.7 mph - 0.11 in Rain Light Rain
2:31 AM 69.8 °F - 66.2 °F 88% 30.01 in 10.0 mi SE 11.5 mph - 0.00 in Rain Light Rain
2:53 AM 68.0 °F - 66.9 °F 96% 29.99 in 10.0 mi SE 9.2 mph - 0.00 in   Mostly Cloudy
3:36 AM 68.0 °F - 66.2 °F 94% 30.01 in 10.0 mi ESE 9.2 mph - N/A   Mostly Cloudy
3:53 AM 68.0 °F - 66.0 °F 93% 29.99 in 10.0 mi ESE 6.9 mph - N/A   Partly Cloudy
4:53 AM 68.0 °F - 66.9 °F 96% 30.01 in 9.0 mi ESE 6.9 mph - N/A   Overcast
5:53 AM 68.0 °F - 66.0 °F 93% 30.00 in 8.0 mi ESE 9.2 mph - N/A   Mostly Cloudy
6:53 AM 68.0 °F - 64.9 °F 90% 29.99 in 8.0 mi ESE 11.5 mph - N/A   Scattered Clouds
7:45 AM 69.8 °F - 64.4 °F 83% 30.01 in 8.0 mi ESE 12.7 mph - N/A   Mostly Cloudy
7:53 AM 69.1 °F - 64.9 °F 87% 29.99 in 8.0 mi SE 12.7 mph - N/A   Mostly Cloudy
8:30 AM 71.6 °F - 66.2 °F 83% 30.00 in 8.0 mi SE 13.8 mph - N/A   Scattered Clouds
8:42 AM 71.6 °F - 66.2 °F 83% 30.00 in 8.0 mi SE 12.7 mph - N/A   Mostly Cloudy
8:53 AM 72.0 °F - 66.0 °F 81% 29.99 in 9.0 mi SE 13.8 mph 20.7 mph N/A   Mostly Cloudy
9:53 AM 75.0 °F - 66.9 °F 76% 29.98 in 10.0 mi SSE 15.0 mph - N/A   Mostly Cloudy
10:53 AM 77.0 °F - 66.9 °F 71% 29.97 in 10.0 mi SSE 15.0 mph 28.8 mph N/A   Mostly Cloudy
11:53 AM 78.1 °F - 66.9 °F 68% 29.95 in 10.0 mi SSE 23.0 mph 27.6 mph N/A   Mostly Cloudy
12:17 PM 78.8 °F - 66.2 °F 65% 29.96 in 10.0 mi SSE 18.4 mph 26.5 mph N/A   Mostly Cloudy
12:53 PM 80.1 °F 81.9 °F 64.9 °F 60% 29.91 in 10.0 mi South 18.4 mph 28.8 mph N/A   Mostly Cloudy
1:53 PM 81.0 °F 82.7 °F 64.9 °F 58% 29.87 in 10.0 mi SSE 18.4 mph 28.8 mph N/A   Mostly Cloudy
2:53 PM 82.4 °F 83.9 °F 64.4 °F 54% 29.85 in 10.0 mi SSE 18.4 mph 26.5 mph N/A   Mostly Cloudy
3:53 PM 82.4 °F 84.6 °F 66.2 °F 58% 29.83 in 10.0 mi SSE 21.9 mph 31.1 mph N/A   Mostly Cloudy
4:51 PM 82.4 °F 84.6 °F 66.2 °F 58% 29.85 in 8.0 mi SSW 27.6 mph 46.0 mph N/A Thunderstorm Thunderstorm
4:53 PM 78.1 °F - 66.0 °F 66% 29.83 in 1.5 mi SSW 34.5 mph 46.0 mph 0.00 in Rain , Thunderstorm Heavy Thunderstorms and Rain
4:59 PM 69.8 °F - 66.2 °F 88% 29.84 in 5.0 mi South 26.5 mph 49.5 mph 0.05 in Rain , Thunderstorm Heavy Thunderstorms and Rain
5:39 PM 69.8 °F - 66.2 °F 88% 29.85 in 7.0 mi SSE 15.0 mph 20.7 mph 0.26 in Rain Light Rain
5:53 PM 70.0 °F - 66.9 °F 90% 29.82 in 8.0 mi SE 11.5 mph - 0.28 in Rain Light Rain
6:01 PM 71.6 °F - 66.2 °F 83% 29.84 in 9.0 mi SE 13.8 mph - 0.01 in Rain , Thunderstorm Light Thunderstorms and Rain
6:26 PM 71.6 °F - 66.2 °F 83% 29.84 in 10.0 mi SE 12.7 mph - N/A   Overcast
6:53 PM 73.0 °F - 68.0 °F 84% 29.81 in 6.0 mi SSE 17.3 mph 23.0 mph 0.05 in Rain Light Rain
7:53 PM 73.9 °F - 66.9 °F 79% 29.79 in 10.0 mi SSE 19.6 mph 27.6 mph 0.00 in Rain Light Rain
8:44 PM 73.4 °F - 66.2 °F 78% 29.81 in 10.0 mi SSE 15.0 mph - 0.00 in Rain , Thunderstorm Light Thunderstorms and Rain
8:53 PM 73.9 °F - 66.9 °F 79% 29.79 in 10.0 mi SSE 16.1 mph 23.0 mph 0.00 in Rain , Thunderstorm Light Thunderstorms and Rain
9:39 PM 71.6 °F - 66.2 °F 83% 29.85 in 2.5 mi WSW 23.0 mph 33.4 mph 0.01 in Rain , Thunderstorm Heavy Thunderstorms and Rain
9:46 PM 68.0 °F - 64.4 °F 88% 29.87 in 2.0 mi SW 24.2 mph 33.4 mph 0.18 in Rain , Thunderstorm Heavy Thunderstorms and Rain
9:53 PM 66.2 °F - 64.4 °F 94% 29.86 in 1.0 mi SSW 13.8 mph 33.4 mph N/A Rain , Thunderstorm Heavy Thunderstorms and Rain
9:55 PM 66.2 °F - 66.2 °F 100% 29.86 in 1.5 mi SSW 13.8 mph 33.4 mph N/A Rain , Thunderstorm Heavy Thunderstorms and Rain
10:11 PM 66.2 °F - 66.2 °F 100% 29.84 in 1.0 mi South 8.1 mph 20.7 mph 0.59 in Rain , Thunderstorm Heavy Thunderstorms and Rain
10:31 PM 68.0 °F - 66.2 °F 94% 29.84 in 1.0 mi South 8.1 mph - 0.79 in Rain , Thunderstorm Thunderstorms and Rain
10:53 PM 68.0 °F - 66.9 °F 96% 29.82 in 1.0 mi SSE 10.4 mph - 0.85 in Rain , Thunderstorm Heavy Thunderstorms and Rain
11:29 PM 66.2 °F - 64.4 °F 94% 29.83 in 1.0 mi SE 13.8 mph - N/A Rain Heavy Rain
11:53 PM 66.9 °F - 64.9 °F 93% 29.80 in 1.0 mi ESE 12.7 mph - 0.20 in Rain Heavy Rain
11:59 PM 66.2 °F - 64.4 °F 94% 29.82 in 5.0 mi ESE 12.7 mph - 0.03 in Rain Heavy Rain